User: anonymous   Login
Location: Bois de la Silve
(44.4667°N, 6.7833°E)
Time: 23:07:15
(UTC+00:00)
Language:

USA 238 DEB - Orbit

View from above orbital plane
View from above orbital plane
View from above satellite
View from above satellite

Ground track
Ground track

The orbit data is extracted from the following two-line orbital elements,

1 38773U 12048P   20261.82567812 0.00000000  00000-0  00000-0 0    06
2 38773  63.4289 156.0839 0133890   0.8462 359.1538 13.40808706    09
Epoch (UTC): 17 September 2020 19:48:58
Eccentricity: 0.0133890
inclination: 63.4289°
perigee height: 1006 km
apogee height: 1206 km
right ascension of ascending node: 156.0839°
argument of perigee: 0.8462°
revolutions per day: 13.40808706
mean anomaly at epoch: 359.1538°
orbit number at epoch: 0

The dashed part of the orbit path shows where the satellite is in the earth's shadow,  

DLR